Time,TemperatureF,DewpointF,PressureIn,WindDirection,WindDirectionDegrees,WindSpeedMPH,WindSpeedGustMPH,Humidity,HourlyPrecipIn,Conditions,Clouds,dailyrainin,SoftwareType,DateUTC
2013-05-21 00:02:00,63.0,61.0,29.83,WNW,290,6.0,13.0,93,0.16,,,0.25,,2013-05-21 05:02:00,
2013-05-21 00:12:00,63.0,61.0,29.83,WNW,290,6.0,13.0,93,0.16,,,0.25,,2013-05-21 05:12:00,
2013-05-21 00:22:00,63.0,61.0,29.84,West,270,9.0,18.0,92,0.16,,,0.26,,2013-05-21 05:22:00,
2013-05-21 00:32:00,64.0,61.0,29.85,WSW,241,6.0,15.0,91,0.16,,,0.30,,2013-05-21 05:32:00,
2013-05-21 00:42:00,63.0,61.0,29.84,SW,236,3.0,8.0,92,0.11,,,0.33,,2013-05-21 05:42:00,
2013-05-21 00:52:00,63.0,61.0,29.84,SW,236,3.0,8.0,92,0.11,,,0.33,,2013-05-21 05:52:00,
2013-05-21 01:02:00,63.0,61.0,29.83,SW,214,2.0,5.0,93,0.10,,,0.35,,2013-05-21 06:02:00,
2013-05-21 01:12:00,63.0,61.0,29.83,SW,214,2.0,5.0,93,0.10,,,0.35,,2013-05-21 06:12:00,
2013-05-21 01:21:00,63.0,61.0,29.85,SSW,192,4.0,11.0,92,0.10,,,0.36,,2013-05-21 06:21:00,
2013-05-21 01:32:00,63.0,61.0,29.77,ESE,105,4.0,9.0,93,0.07,,,0.37,,2013-05-21 06:32:00,
2013-05-21 01:41:00,63.0,61.0,29.77,ESE,105,4.0,9.0,93,0.07,,,0.37,,2013-05-21 06:41:00,
2013-05-21 01:52:00,62.0,60.0,29.74,SSE,158,1.0,7.0,94,0.04,,,0.37,,2013-05-21 06:52:00,
2013-05-21 02:01:00,62.0,61.0,29.75,South,180,1.0,3.0,95,0.02,,,0.37,,2013-05-21 07:01:00,
2013-05-21 02:11:00,62.0,61.0,29.75,South,180,1.0,3.0,95,0.02,,,0.37,,2013-05-21 07:11:00,
2013-05-21 02:22:00,62.0,61.0,29.75,SSE,149,0.0,2.0,95,0.01,,,0.37,,2013-05-21 07:22:00,
2013-05-21 02:31:00,61.0,60.0,29.76,SSE,157,0.0,2.0,96,0.00,,,0.37,,2013-05-21 07:31:00,
2013-05-21 02:41:00,61.0,60.0,29.76,SSE,157,0.0,2.0,96,0.00,,,0.37,,2013-05-21 07:41:00,
2013-05-21 02:52:00,61.0,60.0,29.76,SE,141,1.0,4.0,96,0.00,,,0.37,,2013-05-21 07:52:00,
2013-05-21 03:01:00,61.0,60.0,29.76,SSW,198,0.0,1.0,96,0.00,,,0.37,,2013-05-21 08:01:00,
2013-05-21 03:11:00,61.0,60.0,29.75,WSW,257,0.0,2.0,96,0.00,,,0.37,,2013-05-21 08:11:00,
2013-05-21 03:21:00,61.0,60.0,29.75,WSW,257,0.0,2.0,96,0.00,,,0.37,,2013-05-21 08:21:00,
2013-05-21 03:31:00,61.0,60.0,29.75,SW,214,0.0,1.0,97,0.00,,,0.37,,2013-05-21 08:31:00,
2013-05-21 03:41:00,60.0,59.0,29.75,SSW,204,0.0,1.0,97,0.00,,,0.37,,2013-05-21 08:41:00,
2013-05-21 03:52:00,60.0,59.0,29.75,SSW,204,0.0,1.0,97,0.00,,,0.37,,2013-05-21 08:52:00,
2013-05-21 04:01:00,60.0,59.0,29.74,SSW,205,0.0,1.0,97,0.00,,,0.37,,2013-05-21 09:01:00,
2013-05-21 04:11:00,60.0,59.0,29.74,SSW,205,0.0,1.0,97,0.00,,,0.37,,2013-05-21 09:11:00,
2013-05-21 04:21:00,60.0,59.0,29.75,SE,130,0.0,2.0,97,0.00,,,0.37,,2013-05-21 09:21:00,
2013-05-21 04:32:00,61.0,60.0,29.74,NE,49,1.0,3.0,97,0.01,,,0.38,,2013-05-21 09:32:00,
2013-05-21 04:42:00,61.0,60.0,29.74,NE,49,1.0,3.0,97,0.01,,,0.38,,2013-05-21 09:42:00,
2013-05-21 04:53:00,61.0,60.0,29.78,WSW,245,2.0,6.0,97,0.01,,,0.38,,2013-05-21 09:53:00,
2013-05-21 05:02:00,61.0,60.0,29.78,South,179,2.0,6.0,97,0.01,,,0.38,,2013-05-21 10:02:00,
2013-05-21 05:12:00,61.0,60.0,29.78,South,179,2.0,6.0,97,0.01,,,0.38,,2013-05-21 10:12:00,
2013-05-21 05:22:00,61.0,60.0,29.78,SW,221,1.0,3.0,97,0.01,,,0.38,,2013-05-21 10:22:00,
2013-05-21 05:32:00,61.0,60.0,29.79,WSW,240,1.0,4.0,96,0.00,,,0.38,,2013-05-21 10:32:00,
2013-05-21 05:42:00,61.0,60.0,29.79,WSW,240,1.0,4.0,96,0.00,,,0.38,,2013-05-21 10:42:00,
2013-05-21 05:52:00,62.0,60.0,29.81,SW,235,3.0,6.0,93,0.00,,,0.38,,2013-05-21 10:52:00,
2013-05-21 06:02:00,63.0,60.0,29.83,SSW,203,3.0,11.0,91,0.00,,,0.38,,2013-05-21 11:02:00,
2013-05-21 06:12:00,63.0,60.0,29.83,SSW,203,3.0,11.0,91,0.00,,,0.38,,2013-05-21 11:12:00,
2013-05-21 06:21:00,64.0,61.0,29.83,SSW,211,4.0,9.0,90,0.00,,,0.38,,2013-05-21 11:21:00,
2013-05-21 06:32:00,63.0,60.0,29.85,SW,221,5.0,9.0,91,0.01,,,0.39,,2013-05-21 11:32:00,
2013-05-21 06:41:00,63.0,60.0,29.85,SW,221,5.0,9.0,91,0.01,,,0.39,,2013-05-21 11:41:00,
2013-05-21 06:52:00,63.0,61.0,29.77,NE,51,2.0,6.0,92,0.05,,,0.43,,2013-05-21 11:52:00,
2013-05-21 07:01:00,62.0,60.0,29.69,NNE,32,2.0,5.0,94,0.05,,,0.43,,2013-05-21 12:01:00,
2013-05-21 07:11:00,62.0,60.0,29.69,NNE,32,2.0,5.0,94,0.05,,,0.43,,2013-05-21 12:11:00,
2013-05-21 07:21:00,62.0,61.0,29.75,NNW,345,5.0,11.0,95,0.05,,,0.43,,2013-05-21 12:21:00,
2013-05-21 07:31:00,62.0,61.0,29.74,NNE,26,1.0,5.0,95,0.04,,,0.43,,2013-05-21 12:31:00,
2013-05-21 07:41:00,62.0,61.0,29.74,NNE,26,1.0,5.0,95,0.04,,,0.43,,2013-05-21 12:41:00,
2013-05-21 07:52:00,62.0,61.0,29.76,SSW,205,3.0,7.0,95,0.00,,,0.43,,2013-05-21 12:52:00,
2013-05-21 08:01:00,63.0,62.0,29.77,SSW,203,3.0,6.0,95,0.00,,,0.43,,2013-05-21 13:01:00,
2013-05-21 08:12:00,63.0,62.0,29.77,SSW,203,3.0,6.0,95,0.00,,,0.43,,2013-05-21 13:12:00,
2013-05-21 08:22:00,63.0,62.0,29.80,SW,217,2.0,6.0,95,0.00,,,0.43,,2013-05-21 13:22:00,
2013-05-21 08:32:00,64.0,62.0,29.80,SSE,162,1.0,8.0,94,0.00,,,0.43,,2013-05-21 13:32:00,
2013-05-21 08:41:00,64.0,62.0,29.80,SSE,162,1.0,8.0,94,0.00,,,0.43,,2013-05-21 13:41:00,
2013-05-21 08:52:00,66.0,63.0,29.80,SW,222,4.0,11.0,91,0.00,,,0.43,,2013-05-21 13:52:00,
2013-05-21 09:01:00,67.0,63.0,29.82,SW,226,2.0,9.0,88,0.00,,,0.43,,2013-05-21 14:01:00,
2013-05-21 09:11:00,67.0,63.0,29.82,SW,226,2.0,9.0,88,0.00,,,0.43,,2013-05-21 14:11:00,
2013-05-21 09:21:00,67.0,63.0,29.86,South,179,4.0,12.0,88,0.00,,,0.43,,2013-05-21 14:21:00,
2013-05-21 09:31:00,66.0,62.0,29.88,SW,224,5.0,12.0,88,0.00,,,0.43,,2013-05-21 14:31:00,
2013-05-21 09:41:00,66.0,62.0,29.88,SW,224,5.0,12.0,88,0.00,,,0.43,,2013-05-21 14:41:00,
2013-05-21 09:52:00,65.0,62.0,29.85,SW,222,2.0,8.0,90,0.00,,,0.43,,2013-05-21 14:52:00,
2013-05-21 10:01:00,64.0,62.0,29.79,NE,56,1.0,4.0,93,0.07,,,0.50,,2013-05-21 15:01:00,
2013-05-21 10:11:00,64.0,62.0,29.83,SSW,193,6.0,11.0,94,0.08,,,0.51,,2013-05-21 15:11:00,
2013-05-21 10:21:00,64.0,62.0,29.83,SSW,193,6.0,11.0,94,0.08,,,0.51,,2013-05-21 15:21:00,
2013-05-21 10:33:00,64.0,62.0,29.83,South,174,2.0,10.0,94,0.08,,,0.51,,2013-05-21 15:33:00,
2013-05-21 10:42:00,64.0,63.0,29.83,SE,130,2.0,5.0,95,0.08,,,0.51,,2013-05-21 15:42:00,
2013-05-21 10:53:00,64.0,63.0,29.83,SE,130,2.0,5.0,95,0.08,,,0.51,,2013-05-21 15:53:00,
2013-05-21 11:03:00,64.0,62.0,29.83,SSE,147,4.0,7.0,94,0.01,,,0.51,,2013-05-21 16:03:00,
2013-05-21 11:12:00,65.0,63.0,29.83,ESE,104,3.0,6.0,93,0.00,,,0.51,,2013-05-21 16:12:00,
2013-05-21 11:23:00,65.0,63.0,29.83,ESE,104,3.0,6.0,93,0.00,,,0.51,,2013-05-21 16:23:00,
2013-05-21 11:32:00,65.0,63.0,29.80,ESE,114,4.0,9.0,92,0.00,,,0.51,,2013-05-21 16:32:00,
2013-05-21 11:42:00,65.0,63.0,29.83,ENE,65,0.0,4.0,92,0.00,,,0.51,,2013-05-21 16:42:00,
2013-05-21 11:53:00,65.0,63.0,29.83,ENE,65,0.0,4.0,92,0.00,,,0.51,,2013-05-21 16:53:00,
2013-05-21 12:02:00,65.0,63.0,29.88,West,278,3.0,9.0,93,0.00,,,0.51,,2013-05-21 17:02:00,
2013-05-21 12:12:00,65.0,63.0,29.89,NW,316,4.0,9.0,92,0.00,,,0.51,,2013-05-21 17:12:00,
2013-05-21 12:23:00,65.0,63.0,29.89,NW,316,4.0,9.0,92,0.00,,,0.51,,2013-05-21 17:23:00,
2013-05-21 12:32:00,65.0,63.0,29.86,WNW,302,1.0,7.0,94,0.02,,,0.53,,2013-05-21 17:32:00,
2013-05-21 12:43:00,65.0,63.0,29.89,WNW,297,3.0,6.0,94,0.02,,,0.53,,2013-05-21 17:43:00,
2013-05-21 12:52:00,65.0,63.0,29.89,WNW,297,3.0,6.0,94,0.02,,,0.53,,2013-05-21 17:52:00,
2013-05-21 13:01:00,65.0,63.0,29.87,West,264,2.0,4.0,94,0.02,,,0.53,,2013-05-21 18:01:00,
2013-05-21 13:12:00,65.0,63.0,29.87,West,264,2.0,4.0,94,0.02,,,0.53,,2013-05-21 18:12:00,
2013-05-21 13:22:00,64.0,62.0,29.88,WNW,301,1.0,6.0,94,0.05,,,0.56,,2013-05-21 18:22:00,
2013-05-21 13:32:00,64.0,63.0,29.89,SW,228,1.0,6.0,95,0.09,,,0.62,,2013-05-21 18:32:00,
2013-05-21 13:42:00,64.0,63.0,29.88,SW,236,1.0,6.0,96,0.17,,,0.70,,2013-05-21 18:42:00,
2013-05-21 13:52:00,64.0,63.0,29.88,SW,236,1.0,6.0,96,0.17,,,0.70,,2013-05-21 18:52:00,
2013-05-21 14:01:00,63.0,62.0,29.87,ESE,121,0.0,4.0,95,0.24,,,0.77,,2013-05-21 19:01:00,
2013-05-21 14:11:00,63.0,62.0,29.87,ESE,121,0.0,4.0,95,0.24,,,0.77,,2013-05-21 19:11:00,
2013-05-21 14:21:00,64.0,63.0,29.86,SSW,193,0.0,1.0,96,0.24,,,0.80,,2013-05-21 19:21:00,
2013-05-21 14:31:00,64.0,63.0,29.83,SE,141,0.0,1.0,95,0.17,,,0.80,,2013-05-21 19:31:00,
2013-05-21 14:42:00,64.0,63.0,29.83,SE,141,0.0,1.0,95,0.17,,,0.80,,2013-05-21 19:42:00,
2013-05-21 14:52:00,65.0,64.0,29.82,West,276,0.0,2.0,95,0.10,,,0.80,,2013-05-21 19:52:00,
2013-05-21 15:03:00,66.0,64.0,29.80,SW,215,0.0,1.0,93,0.03,,,0.80,,2013-05-21 20:03:00,
2013-05-21 15:11:00,66.0,64.0,29.80,SW,215,0.0,1.0,93,0.03,,,0.80,,2013-05-21 20:11:00,
2013-05-21 15:22:00,67.0,64.0,29.78,WSW,253,1.0,3.0,91,0.00,,,0.80,,2013-05-21 20:22:00,
2013-05-21 15:32:00,68.0,65.0,29.77,SE,145,1.0,4.0,89,0.00,,,0.80,,2013-05-21 20:32:00,
2013-05-21 15:42:00,68.0,65.0,29.77,SE,145,1.0,4.0,89,0.00,,,0.80,,2013-05-21 20:42:00,
2013-05-21 15:52:00,67.0,64.0,29.75,SSE,150,1.0,3.0,91,0.00,,,0.80,,2013-05-21 20:52:00,
2013-05-21 16:02:00,67.0,65.0,29.73,SSE,155,3.0,8.0,92,0.00,,,0.80,,2013-05-21 21:02:00,
2013-05-21 16:11:00,67.0,65.0,29.73,SSE,155,3.0,8.0,92,0.00,,,0.80,,2013-05-21 21:11:00,
2013-05-21 16:21:00,67.0,65.0,29.72,SE,129,1.0,5.0,93,0.00,,,0.80,,2013-05-21 21:21:00,
2013-05-21 16:32:00,67.0,65.0,29.70,SE,136,1.0,5.0,93,0.00,,,0.80,,2013-05-21 21:32:00,
2013-05-21 16:43:00,68.0,66.0,29.70,SE,136,0.0,5.0,92,0.00,,,0.80,,2013-05-21 21:43:00,
2013-05-21 16:54:00,68.0,66.0,29.70,SE,136,0.0,5.0,92,0.00,,,0.80,,2013-05-21 21:54:00,
2013-05-21 17:02:00,67.0,64.0,29.69,SE,141,3.0,5.0,89,0.00,,,0.80,,2013-05-21 22:02:00,
2013-05-21 17:12:00,67.0,64.0,29.69,SE,141,3.0,5.0,89,0.00,,,0.80,,2013-05-21 22:12:00,
2013-05-21 17:22:00,67.0,65.0,29.72,SSE,162,0.0,4.0,92,0.01,,,0.81,,2013-05-21 22:22:00,
2013-05-21 17:33:00,66.0,64.0,29.77,WSW,248,5.0,8.0,94,0.02,,,0.82,,2013-05-21 22:33:00,
2013-05-21 17:42:00,66.0,64.0,29.77,WSW,248,5.0,8.0,94,0.02,,,0.82,,2013-05-21 22:42:00,
2013-05-21 17:53:00,66.0,65.0,29.80,WNW,297,3.0,12.0,95,0.02,,,0.82,,2013-05-21 22:53:00,
2013-05-21 18:02:00,66.0,64.0,29.80,WNW,298,2.0,15.0,93,0.02,,,0.82,,2013-05-21 23:02:00,
2013-05-21 18:12:00,66.0,64.0,29.80,WNW,298,2.0,15.0,93,0.02,,,0.82,,2013-05-21 23:12:00,
2013-05-21 18:22:00,66.0,63.0,29.82,WSW,250,2.0,15.0,91,0.02,,,0.83,,2013-05-21 23:22:00,
2013-05-21 18:32:00,65.0,62.0,29.83,NW,308,4.0,11.0,90,0.01,,,0.83,,2013-05-21 23:32:00,
2013-05-21 18:42:00,64.0,62.0,29.84,West,266,8.0,16.0,92,0.04,,,0.86,,2013-05-21 23:42:00,
2013-05-21 18:52:00,64.0,62.0,29.84,West,266,8.0,16.0,92,0.04,,,0.86,,2013-05-21 23:52:00,
2013-05-21 19:01:00,63.0,61.0,29.82,WSW,242,3.0,10.0,93,0.04,,,0.86,,2013-05-22 00:01:00,
2013-05-21 19:11:00,63.0,61.0,29.80,SSW,203,2.0,5.0,94,0.03,,,0.86,,2013-05-22 00:11:00,
2013-05-21 19:21:00,63.0,61.0,29.80,SSW,203,2.0,5.0,94,0.03,,,0.86,,2013-05-22 00:21:00,
2013-05-21 19:31:00,63.0,61.0,29.79,SW,225,3.0,8.0,94,0.04,,,0.87,,2013-05-22 00:31:00,
2013-05-21 19:41:00,63.0,61.0,29.79,SW,225,3.0,8.0,94,0.04,,,0.87,,2013-05-22 00:41:00,
2013-05-21 19:52:00,63.0,62.0,29.79,SW,229,2.0,6.0,95,0.01,,,0.87,,2013-05-22 00:52:00,
2013-05-21 20:01:00,63.0,62.0,29.79,SW,229,2.0,6.0,95,0.01,,,0.87,,2013-05-22 01:01:00,
2013-05-21 20:11:00,63.0,62.0,29.79,SW,229,2.0,6.0,95,0.01,,,0.87,,2013-05-22 01:11:00,
2013-05-21 20:21:00,62.0,61.0,29.75,SE,138,2.0,7.0,96,0.01,,,0.87,,2013-05-22 01:21:00,
2013-05-21 20:32:00,62.0,61.0,29.74,SSW,212,4.0,9.0,96,0.00,,,0.87,,2013-05-22 01:32:00,
2013-05-21 20:42:00,62.0,61.0,29.67,SE,146,3.0,10.0,96,0.00,,,0.87,,2013-05-22 01:42:00,
2013-05-21 20:52:00,62.0,61.0,29.67,SE,146,3.0,10.0,96,0.00,,,0.87,,2013-05-22 01:52:00,
2013-05-21 21:01:00,62.0,61.0,29.64,SE,142,5.0,11.0,95,0.00,,,0.87,,2013-05-22 02:01:00,
2013-05-21 21:11:00,62.0,61.0,29.64,SE,142,5.0,11.0,95,0.00,,,0.87,,2013-05-22 02:11:00,
2013-05-21 21:21:00,62.0,60.0,29.64,ENE,68,7.0,13.0,93,0.00,,,0.87,,2013-05-22 02:21:00,
2013-05-21 21:32:00,62.0,60.0,29.65,SSE,154,3.0,13.0,92,0.00,,,0.87,,2013-05-22 02:32:00,
2013-05-21 21:42:00,62.0,60.0,29.66,SSE,163,4.0,10.0,93,0.00,,,0.87,,2013-05-22 02:42:00,
2013-05-21 21:52:00,62.0,60.0,29.66,SSE,163,4.0,10.0,93,0.00,,,0.87,,2013-05-22 02:52:00,
2013-05-21 22:01:00,62.0,60.0,29.66,SSE,163,4.0,10.0,93,0.00,,,0.87,,2013-05-22 03:01:00,
2013-05-21 22:11:00,62.0,60.0,29.66,SSE,163,4.0,10.0,93,0.00,,,0.87,,2013-05-22 03:11:00,
2013-05-21 22:21:00,62.0,60.0,29.66,SSE,163,4.0,10.0,93,0.00,,,0.87,,2013-05-22 03:21:00,
2013-05-21 22:33:00,62.0,60.0,29.66,SSE,163,4.0,10.0,93,0.00,,,0.87,,2013-05-22 03:33:00,